Сен-Бриё

Франция     48°30′39″N   2°45′31″W
темп.,
°C
ветер,
м/с
пор.,
м/с
влажн.,
%
обл.,
%
осадки,
мм/ч
давл.,
гПа
погр.,
м
20 января, ср
ср2001:00+9ююз111988100 1.1 1002724
04:00+9ююз91781100 0.1 999713
07:00+9ююз111888100 1.9 997843
10:00+9ююз91888100 1.3 994906
13:00+10ю111885100 2.1 992998
16:00+11ююз132178100 0.5 9881392
19:00+10ю11208698 2.1 9841123
22:00+11зюз10188593 2.0 9831089
21 января, чт
чт2101:00+6зюз8167980 2.7 990972
04:00+6зюз715800 0.0 993753
07:00+6юз714810 0.0 995627
10:00+6ююз61380100 0.0 994700
13:00+6ююз61087100 1.9 990826
16:00+9ююз61487100 3.4 9851196
19:00+5сз6991100 3.8 988680
22:00+5зюз6118993 0.0 991355
22 января, пт
пт2201:00+4зюз479187 0.0 992166
04:00+4зюз4885100 0.0 993190
07:00+3юз4685100 0.0 993117
10:00+4юз468468 0.0 993136
13:00+8з687179 0.0 994948
16:00+7з697395 0.3 9941015
19:00+5юз5128097 0.3 995538
22:00+5зюз7158097 0.1 996781
23 января, сб
сб2301:00+4зюз6128288 0.1 996354
04:00+4з61086100 0.1 996343
07:00+3з61187100 1.0 997442
10:00+3з6128047 0.1 999475
13:00+7з7116741 0.1 9991349
16:00+6зсз697035 0.1 9991172
19:00+3з478418 0.1 999228
22:00+2зюз458331 0.0 999105
24 января, вс
вс2401:00+2юз478064 0.0 1000182
04:00+3з6138189 0.3 1000534
07:00+2з6138062 0.3 1001476
10:00+3з6117885 0.3 1003684
13:00+5зсз8116692 1.1 10031469
16:00+5зсз81169100 0.9 10041410
19:00+2зсз51178100 1.4 1006470
22:00+1з588225 0.0 1008217